Flag for Germany Weather past 2 weeks in Schorndorf, Baden-Württemberg, Germany

Now
41 °F

Scattered clouds.


Feels Like: 41 °F
Forecast: 28 / 47 °F
Wind: 2 mph from Northeast

Location: Stuttgart-Echterdingen

Current Time: Feb 28, 2015 at 2:36:42 PM

Latest Report: Feb 28, 2015 at 2:00 PM


Visibility: 25 mi

Pressure: 30.14 "Hg

Humidity: 66%

Dew point: 31 °F

Location of SchorndorfLocation

Historic Weather in Schorndorf — Graph

°F

Schorndorf temperature yesterday

Maximum temperature yesterday: 38 °F (at 3:00 PM)
Minimum temperature yesterday: 33 °F (at 2:00 AM)
Average temperature yesterday: 35 °F

Past Weeks' High & Low Weather Summary

 TemperatureHumidityPressure
High55 °F (Feb 20, 3:00 PM)98% (Feb 17, 4:00 AM)30.78 "Hg (Feb 17, 4:00 AM)
Low24 °F (Feb 20, 5:00 AM)38% (Feb 20, 4:00 PM)29.55 "Hg (Feb 23, 5:00 PM)
Average35 °F80%30.07 "Hg
* Reported Feb 13 1:00 PM — Feb 28 1:00 PM, Schorndorf, Weather by CustomWeather, © 2015

Note: Actual official high and low records may vary slightly from our data, if they occured in-between our weather recording intervals... More about our weather records

Advertising

Schorndorf weather history for previous 24 hours

 ConditionsComfort  
Time TempWeatherWind HumidityBarometerVisibility
1:00 PM
Sat, Feb 28
41 °FScattered clouds.1 mph70%30.17 "Hg22 mi
12:00 PM42 °FScattered clouds.1 mph69%30.19 "Hg19 mi
11:00 AM38 °FScattered clouds.1 mph77%30.21 "Hg15 mi
10:00 AM37 °FPartly sunny.2 mph81%30.22 "Hg14 mi
9:00 AM35 °FPassing clouds.2 mph91%30.23 "Hg10 mi
8:00 AM33 °FFog.No wind91%30.23 "Hg8 mi
7:00 AM35 °FOvercast.2 mph88%30.22 "Hg9 mi
6:00 AM35 °FOvercast.2 mph90%30.20 "Hg16 mi
5:00 AM35 °FOvercast.1 mph89%30.19 "Hg16 mi
4:00 AM35 °FOvercast.2 mph89%30.19 "Hg16 mi
3:00 AM36 °FOvercast.3 mph87%30.19 "Hg12 mi
2:00 AM35 °FLight rain. Overcast.5 mph92%30.19 "Hg7 mi
1:00 AM35 °FLight rain. Overcast.6 mph93%30.19 "Hg4 mi
12:00 AM35 °FLight rain. Overcast.6 mph94%30.19 "Hg4 mi
11:00 PM
Fri, Feb 27
36 °FLight rain. Overcast.6 mph92%30.17 "Hg5 mi
9:00 PM36 °FLight rain. Low clouds.5 mph93%30.14 "Hg5 mi
8:00 PM36 °FLight rain. Low clouds.7 mph92%30.11 "Hg6 mi
7:00 PM36 °FLight rain. Low clouds.7 mph93%30.08 "Hg5 mi
6:00 PM36 °FLight rain. Low clouds.6 mph92%30.04 "Hg4 mi
5:00 PM37 °FLight rain. Low clouds.5 mph91%30.00 "Hg6 mi
3:00 PM38 °FLight rain. Low clouds.5 mph92%29.94 "Hg5 mi
2:00 PM37 °FLight rain. Low clouds.3 mph92%29.92 "Hg4 mi
Weather by CustomWeather, © 2015

See weather overviewHow to use our weather pages